FW4407 Weather Reports


Display with metric or nautical units.
time (UTC)temp
F
wind
direction
speed
MPH
gust
MPH
rain 1hr
in
rain 24hr
in
rain mn
in
humidity
%
barometer
mb
20260506231525 61 0.0 0.0 0.00 0.00 0.00 61 1015.9
20260506230531 61 0.0 0.0 0.00 0.00 0.00 61 1015.9
20260506225538 62 0.0 0.0 0.00 0.00 0.00 61 1015.9
20260506224523 62 0.0 0.0 0.00 0.00 0.00 60 1015.9
20260506223528 62 0.0 0.0 0.00 0.00 0.00 60 1015.9
20260506222515 62 0.0 0.0 0.00 0.00 0.00 59 1015.9
20260506221521 63 0.0 0.0 0.00 0.00 0.00 60 1016.0
20260506220526 63 0.0 0.0 0.00 0.00 0.00 59 1016.0
20260506215526 64 0.0 0.0 0.00 0.00 0.00 58 1016.0
20260506214531 64 0.0 0.0 0.00 0.00 0.00 55 1016.1
20260506213519 64 0.0 0.0 0.00 0.00 0.00 53 1016.2
20260506212524 64 0.0 0.0 0.00 0.00 0.00 52 1016.3
20260506211529 64 0.0 0.0 0.00 0.00 0.00 51 1016.3
20260506210517 64 0.0 0.0 0.00 0.00 0.00 52 1016.3
20260506205522 64 0.0 0.0 0.00 0.00 0.00 52 1016.5
20260506204527 64 0.0 0.0 0.00 0.00 0.00 51 1016.5
20260506203515 65 0.0 0.0 0.00 0.00 0.00 50 1016.5
20260506202520 65 0.0 0.0 0.00 0.00 0.00 49 1016.5
20260506201525 66 0.0 0.0 0.00 0.00 0.00 49 1016.5
20260506200530 66 0.0 0.0 0.00 0.00 0.00 47 1016.2
20260506195518 67 0.0 0.0 0.00 0.00 0.00 47 1016.2
20260506194523 67 0.0 0.0 0.00 0.00 0.00 46 1016.2
20260506193528 67 0.0 0.0 0.00 0.00 0.00 46 1016.0
20260506192515 67 0.0 0.0 0.00 0.00 0.00 45 1015.9
20260506191521 67 0.0 0.0 0.00 0.00 0.00 45 1015.9
20260506190526 68 0.0 0.0 0.00 0.00 0.00 44 1015.8
20260506185531 68 0.0 0.0 0.00 0.00 0.00 43 1015.6
20260506184534 68 0.0 0.0 0.00 0.00 0.00 43 1015.7
20260506183525 68 0.0 0.0 0.00 0.00 0.00 44 1015.6
20260506182529 68 0.0 0.0 0.00 0.00 0.00 44 1015.4
20260506181517 68 0.0 0.0 0.00 0.00 0.00 45 1015.3
20260506180542 68 0.0 0.0 0.00 0.00 0.00 45 1015.1
20260506175527 69 1 1.0 5.0 0.00 0.00 0.00 45 1015.1
20260506174515 69 0.0 0.0 0.00 0.00 0.00 45 1015.1
20260506173520 70 329 0.0 5.0 0.00 0.00 0.00 45 1015.0
20260506172525 70 0.0 0.0 0.00 0.00 0.00 44 1015.0
20260506171530 71 314 0.0 2.0 0.00 0.00 0.00 43 1014.9
20260506170518 72 193 0.0 2.0 0.00 0.00 0.00 41 1014.9
20260506165523 73 0.0 0.0 0.00 0.00 0.00 41 1014.8
20260506164528 74 317 0.0 5.0 0.00 0.00 0.00 39 1014.8
20260506163516 75 257 1.0 5.0 0.00 0.00 0.00 37 1014.8
20260506162541 75 254 1.0 8.0 0.00 0.00 0.00 37 1014.7
20260506161526 76 265 0.0 5.0 0.00 0.00 0.00 35 1014.7
20260506160531 76 284 1.0 8.0 0.00 0.00 0.00 35 1014.7
20260506155519 76 306 0.0 5.0 0.00 0.00 0.00 35 1014.7
20260506154524 77 310 1.0 8.0 0.00 0.00 0.00 35 1014.8
20260506153529 77 265 1.0 8.0 0.00 0.00 0.00 34 1014.9
20260506152517 77 252 1.0 10.0 0.00 0.00 0.00 34 1015.1
20260506151522 77 225 1.0 10.0 0.00 0.00 0.00 34 1015.0
20260506150547 78 242 2.0 8.0 0.00 0.00 0.00 34 1015.0
20260506145552 78 289 2.0 10.0 0.00 0.00 0.00 35 1015.0
20260506144540 78 262 2.0 8.0 0.00 0.00 0.00 35 1015.1
20260506143525 78 277 2.0 8.0 0.00 0.00 0.00 36 1015.1
20260506142530 78 297 1.0 8.0 0.00 0.00 0.00 36 1015.1
20260506141518 78 41 1.0 8.0 0.00 0.00 0.00 36 1015.1
20260506140523 79 251 3.0 10.0 0.00 0.00 0.00 36 1015.1
20260506135528 79 233 2.0 8.0 0.00 0.00 0.00 36 1015.1
20260506134516 79 228 2.0 8.0 0.00 0.00 0.00 36 1015.1
20260506133521 79 265 1.0 5.0 0.00 0.00 0.00 36 1015.1
20260506132526 79 237 2.0 8.0 0.00 0.00 0.00 36 1015.1
20260506131551 79 249 1.0 8.0 0.00 0.00 0.00 33 1015.1
20260506130519 79 282 1.0 8.0 0.00 0.00 0.00 33 1015.1
20260506125524 79 261 2.0 8.0 0.00 0.00 0.00 35 1015.1
20260506124529 79 280 1.0 8.0 0.00 0.00 0.00 35 1015.2
20260506123517 79 232 3.0 10.0 0.00 0.00 0.00 35 1015.3
20260506122542 79 257 4.0 10.0 0.00 0.00 0.00 36 1015.2
20260506121527 79 231 3.0 10.0 0.00 0.00 0.00 34 1015.2
20260506120515 79 242 1.0 5.0 0.00 0.00 0.00 35 1015.5
20260506115520 79 249 2.0 8.0 0.00 0.00 0.00 37 1015.5
20260506114525 79 242 3.0 13.0 0.00 0.00 0.00 35 1015.5
20260506113530 79 229 2.0 5.0 0.00 0.00 0.00 36 1015.6
20260506112518 79 236 3.0 10.0 0.00 0.00 0.00 36 1015.6
20260506111523 79 236 3.0 10.0 0.00 0.00 0.00 36 1015.5
20260506110528 79 222 2.0 8.0 0.00 0.00 0.00 36 1015.6
20260506105515 79 235 2.0 8.0 0.00 0.00 0.00 35 1015.5
20260506104521 79 267 1.0 8.0 0.00 0.00 0.00 36 1015.6
20260506103526 79 247 1.0 5.0 0.00 0.00 0.00 36 1015.6
20260506102530 79 274 1.0 8.0 0.00 0.00 0.00 37 1015.6
20260506101519 79 245 2.0 5.0 0.00 0.00 0.00 37 1015.7
20260506100524 80 231 3.0 8.0 0.00 0.00 0.00 38 1015.6
20260506095529 80 230 1.0 8.0 0.00 0.00 0.00 37 1015.9
20260506094517 79 229 1.0 8.0 0.00 0.00 0.00 36 1015.8
20260506093522 79 235 1.0 5.0 0.00 0.00 0.00 36 1015.9
20260506092527 79 336 1.0 5.0 0.00 0.00 0.00 36 1015.9
20260506091552 79 219 1.0 8.0 0.00 0.00 0.00 37 1015.9
20260506090520 78 227 1.0 5.0 0.00 0.00 0.00 36 1015.9
20260506085525 78 210 1.0 5.0 0.00 0.00 0.00 37 1015.9
20260506084530 78 197 1.0 5.0 0.00 0.00 0.00 38 1015.8
20260506083518 78 257 0.0 2.0 0.00 0.00 0.00 38 1015.8
20260506082523 77 227 1.0 8.0 0.00 0.00 0.00 37 1015.8
20260506081528 77 235 1.0 5.0 0.00 0.00 0.00 38 1015.8
20260506080516 76 48 0.0 2.0 0.00 0.00 0.00 39 1015.9
20260506072518 75 0.0 0.0 0.00 0.00 0.00 40 1015.5
20260506071524 75 0.0 0.0 0.00 0.00 0.00 41 1015.5
20260506070528 75 255 0.0 2.0 0.00 0.00 0.00 43 1015.4
20260506061520 70 0.0 0.0 0.00 0.00 0.00 48 1015.5
20260506060524 68 0.0 0.0 0.00 0.00 0.00 46 1015.4
20260506050520 62 0.0 0.0 0.00 0.00 0.00 62 1015.1
20260506044530 60 0.0 0.0 0.00 0.00 0.00 60 1015.0
20260506043519 58 0.0 0.0 0.00 0.00 0.00 64 1015.1
20260506042523 57 0.0 0.0 0.00 0.00 0.00 67 1014.8
20260506041528 56 0.0 0.0 0.00 0.00 0.00 70 1014.8
20260506040516 56 0.0 0.0 0.00 0.00 0.00 71 1014.7
20260506035522 56 0.0 0.0 0.00 0.00 0.00 71 1014.8
20260506034526 55 0.0 0.0 0.00 0.00 0.00 71 1014.6
20260506033531 55 0.0 0.0 0.00 0.00 0.00 71 1014.4
20260506032520 55 0.0 0.0 0.00 0.00 0.00 71 1014.4
20260506031524 55 0.0 0.0 0.00 0.00 0.00 71 1014.4
20260506030530 55 354 0.0 2.0 0.00 0.00 0.00 71 1014.4
20260506025517 56 0.0 0.0 0.00 0.00 0.00 72 1014.2
20260506024522 56 0.0 0.0 0.00 0.00 0.00 71 1014.3
20260506023528 56 0.0 0.0 0.00 0.00 0.00 70 1014.3
20260506022532 56 0.0 0.0 0.00 0.00 0.00 70 1014.4
20260506021540 56 0.0 0.0 0.00 0.00 0.00 70 1014.3
20260506020546 56 0.0 0.0 0.00 0.00 0.00 70 1014.4
20260506015531 57 0.0 0.0 0.00 0.00 0.00 69 1014.5
20260506014519 57 0.0 0.0 0.00 0.00 0.00 69 1014.4
20260506013524 57 0.0 0.0 0.00 0.00 0.00 68 1014.6
20260506012528 57 0.0 0.0 0.00 0.00 0.00 68 1014.8
20260506011517 57 0.0 0.0 0.00 0.00 0.00 67 1014.6
20260506010521 57 0.0 0.0 0.00 0.00 0.00 67 1014.6
20260506005526 57 0.0 0.0 0.00 0.00 0.00 67 1014.6
20260506004552 58 0.0 0.0 0.00 0.00 0.00 67 1014.7
20260506003519 58 0.0 0.0 0.00 0.00 0.00 67 1014.6
20260506002525 58 0.0 0.0 0.00 0.00 0.00 66 1014.8
20260506001530 58 0.0 0.0 0.00 0.00 0.00 66 1014.8
20260506000517 59 0.0 0.0 0.00 0.00 0.00 67 1014.8
20260505235542 60 0.0 0.0 0.00 0.00 0.00 66 1014.8
20260505234527 60 0.0 0.0 0.00 0.00 0.00 66 1014.8
20260505233515 60 0.0 0.0 0.00 0.00 0.00 64 1014.8
20260505232520 59 0.0 0.0 0.00 0.00 0.00 66 1014.9